Location: Newark
(26.0600°N, 83.1900°E)
Time: 22:42:46
(UTC+00:00)

Envisat - Visible Passes

Search period start: 19 August 2019 00:00
Search period end: 29 August 2019 00:00
Orbit: 764 x 766 km, 98.1° (Epoch: 19 August)

Date Brightness Start Highest point End Pass type
(mag) Time Alt. Az. Time Alt. Az. Time Alt. Az.
19 Aug 5.9 14:08:46 10° SW 14:11:12 13° W 14:13:39 10° WNW visible
20 Aug 4.8 13:29:41 10° SSW 13:34:18 35° W 13:38:55 10° NNW visible
22 Aug 5.7 13:56:29 10° SW 13:59:54 18° W 14:03:19 10° NW visible
23 Aug 4.2 13:18:10 10° S 13:23:01 46° W 13:27:54 10° NNW visible
25 Aug 5.4 13:44:34 10° SSW 13:48:36 24° W 13:52:39 10° NW visible
27 Aug 6.0 14:12:23 10° WSW 14:14:14 12° W 14:16:06 10° WNW visible
28 Aug 5.0 13:32:50 10° SSW 13:37:18 31° W 13:41:48 10° NW visible
